Time,TemperatureF,DewpointF,PressureIn,WindDirection,WindDirectionDegrees,WindSpeedMPH,WindSpeedGustMPH,Humidity,HourlyPrecipIn,Conditions,Clouds,dailyrainin,SolarRadiationWatts/m^2,SoftwareType,DateUTC
2013-09-23 00:00:00,49.4,43.5,30.01,South,175,1.0,2.0,80,0.00,,OVC,0.00,0.00,VWS V14.01,2013-09-23 05:00:00,
2013-09-23 00:05:00,49.4,43.2,30.00,SW,217,1.0,5.0,79,0.00,,OVC,0.00,0.00,VWS V14.01,2013-09-23 05:05:00,
2013-09-23 00:10:00,49.3,43.1,30.00,SSW,205,0.0,5.0,79,0.00,,OVC,0.00,0.00,VWS V14.01,2013-09-23 05:10:00,
2013-09-23 00:15:00,49.3,43.1,30.00,SSW,196,2.0,7.0,79,0.00,,OVC,0.00,0.00,VWS V14.01,2013-09-23 05:15:00,
2013-09-23 00:20:00,49.2,42.6,30.00,WSW,242,3.0,7.0,78,0.00,,OVC,0.00,0.00,VWS V14.01,2013-09-23 05:20:00,
2013-09-23 00:25:00,49.2,43.0,30.00,SSE,150,0.0,8.0,79,0.00,,OVC,0.00,0.00,VWS V14.01,2013-09-23 05:25:00,
2013-09-23 00:30:00,49.2,43.0,30.01,SSE,159,0.0,9.0,79,0.00,,OVC,0.00,0.00,VWS V14.01,2013-09-23 05:30:00,
2013-09-23 00:35:00,49.1,43.2,30.01,South,180,0.0,7.0,80,0.00,,OVC,0.00,0.00,VWS V14.01,2013-09-23 05:35:00,
2013-09-23 00:40:00,49.0,42.8,30.00,SE,129,0.0,5.0,79,0.00,,OVC,0.00,0.00,VWS V14.01,2013-09-23 05:40:00,
2013-09-23 00:45:00,49.0,42.8,30.01,SSE,162,1.0,9.0,79,0.00,,OVC,0.00,0.00,VWS V14.01,2013-09-23 05:45:00,
2013-09-23 00:50:00,48.8,42.6,30.00,South,173,3.0,7.0,79,0.00,,OVC,0.00,0.00,VWS V14.01,2013-09-23 05:50:00,
2013-09-23 00:55:00,48.8,42.9,30.00,SSE,158,3.0,6.0,80,0.00,,OVC,0.00,0.00,VWS V14.01,2013-09-23 05:55:00,
2013-09-23 01:00:00,48.7,42.5,30.00,SSW,207,3.0,8.0,79,0.00,,OVC,0.00,0.00,VWS V14.01,2013-09-23 06:00:00,
2013-09-23 01:06:00,48.5,42.6,30.00,SE,138,1.0,10.0,80,0.00,,OVC,0.00,0.00,VWS V14.01,2013-09-23 06:06:00,
2013-09-23 01:11:00,48.4,42.5,30.00,South,190,3.0,6.0,80,0.00,,OVC,0.00,0.00,VWS V14.01,2013-09-23 06:11:00,
2013-09-23 01:16:00,48.3,42.8,30.00,SSW,204,2.0,4.0,81,0.00,,OVC,0.00,0.00,VWS V14.01,2013-09-23 06:16:00,
2013-09-23 01:21:00,48.3,42.8,30.01,South,171,0.0,5.0,81,0.00,,OVC,0.00,0.00,VWS V14.01,2013-09-23 06:21:00,
2013-09-23 01:26:00,48.2,42.7,30.01,SSW,194,2.0,6.0,81,0.00,,OVC,0.00,0.00,VWS V14.01,2013-09-23 06:26:00,
2013-09-23 01:31:00,48.1,42.5,30.01,SSE,159,4.0,7.0,81,0.00,,OVC,0.00,0.00,VWS V14.01,2013-09-23 06:31:00,
2013-09-23 01:36:00,48.0,42.8,30.01,SSW,205,4.0,5.0,82,0.00,,OVC,0.00,0.00,VWS V14.01,2013-09-23 06:36:00,
2013-09-23 01:41:00,47.9,42.7,30.01,SSE,167,0.0,5.0,82,0.00,,OVC,0.00,0.00,VWS V14.01,2013-09-23 06:41:00,
2013-09-23 01:46:00,47.8,42.6,30.01,South,186,3.0,8.0,82,0.00,,OVC,0.00,0.00,VWS V14.01,2013-09-23 06:46:00,
2013-09-23 01:51:00,47.6,42.4,30.01,ESE,119,0.0,6.0,82,0.00,,OVC,0.00,0.00,VWS V14.01,2013-09-23 06:51:00,
2013-09-23 01:56:00,47.6,42.7,30.01,South,169,0.0,0.0,83,0.00,,OVC,0.00,0.00,VWS V14.01,2013-09-23 06:56:00,
2013-09-23 02:01:00,47.4,42.5,30.01,SW,216,2.0,6.0,83,0.00,,OVC,0.00,0.00,VWS V14.01,2013-09-23 07:01:00,
2013-09-23 02:06:00,47.3,42.4,30.01,SSE,161,0.0,0.0,83,0.00,,OVC,0.00,0.00,VWS V14.01,2013-09-23 07:06:00,
2013-09-23 02:11:00,47.3,42.7,30.02,SW,221,2.0,2.0,84,0.00,,OVC,0.00,0.00,VWS V14.01,2013-09-23 07:11:00,
2013-09-23 02:16:00,47.2,42.6,30.02,SSW,203,0.0,1.0,84,0.00,,OVC,0.00,0.00,VWS V14.01,2013-09-23 07:16:00,
2013-09-23 02:21:00,47.1,42.5,30.02,SSE,159,0.0,1.0,84,0.00,,OVC,0.00,0.00,VWS V14.01,2013-09-23 07:21:00,
2013-09-23 02:26:00,47.0,42.4,30.02,South,191,1.0,4.0,84,0.00,,OVC,0.00,0.00,VWS V14.01,2013-09-23 07:26:00,
2013-09-23 02:31:00,46.9,42.3,30.02,SSW,197,0.0,0.0,84,0.00,,OVC,0.00,0.00,VWS V14.01,2013-09-23 07:31:00,
2013-09-23 02:36:00,46.7,42.4,30.02,SSW,192,2.0,6.0,85,0.00,,OVC,0.00,0.00,VWS V14.01,2013-09-23 07:36:00,
2013-09-23 02:41:00,46.7,42.4,30.02,SSW,194,7.0,7.0,85,0.00,,OVC,0.00,0.00,VWS V14.01,2013-09-23 07:41:00,
2013-09-23 02:47:00,46.6,42.3,30.02,South,181,0.0,3.0,85,0.00,,OVC,0.00,0.00,VWS V14.01,2013-09-23 07:47:00,
2013-09-23 02:52:00,46.5,42.5,30.02,SSW,196,3.0,5.0,86,0.00,,OVC,0.00,0.00,VWS V14.01,2013-09-23 07:52:00,
2013-09-23 02:57:00,46.4,42.5,30.02,SE,142,4.0,4.0,86,0.00,,OVC,0.00,0.00,VWS V14.01,2013-09-23 07:57:00,
2013-09-23 03:02:00,46.3,42.0,30.02,SSE,159,5.0,5.0,85,0.00,,OVC,0.00,0.00,VWS V14.01,2013-09-23 08:02:00,
2013-09-23 03:07:00,46.3,42.3,30.02,SSW,194,3.0,3.0,86,0.00,,OVC,0.00,0.00,VWS V14.01,2013-09-23 08:07:00,
2013-09-23 03:12:00,46.1,42.2,30.02,South,182,3.0,5.0,86,0.00,,OVC,0.00,0.00,VWS V14.01,2013-09-23 08:12:00,
2013-09-23 03:17:00,46.1,42.2,30.02,SE,125,0.0,3.0,86,0.00,,OVC,0.00,0.00,VWS V14.01,2013-09-23 08:17:00,
2013-09-23 03:22:00,46.0,42.0,30.02,SSW,202,0.0,5.0,86,0.00,,OVC,0.00,0.00,VWS V14.01,2013-09-23 08:22:00,
2013-09-23 03:27:00,45.9,42.0,30.02,South,177,3.0,6.0,86,0.00,,OVC,0.00,0.00,VWS V14.01,2013-09-23 08:27:00,
2013-09-23 03:32:00,45.9,42.3,30.02,SSW,194,2.0,3.0,87,0.00,,OVC,0.00,0.00,VWS V14.01,2013-09-23 08:32:00,
2013-09-23 03:37:00,45.8,42.2,30.02,South,184,0.0,5.0,87,0.00,,OVC,0.00,0.00,VWS V14.01,2013-09-23 08:37:00,
2013-09-23 03:42:00,45.7,42.1,30.02,ESE,104,2.0,2.0,87,0.00,,OVC,0.00,0.00,VWS V14.01,2013-09-23 08:42:00,
2013-09-23 03:47:00,45.6,42.0,30.02,SW,223,0.0,0.0,87,0.00,,OVC,0.00,0.00,VWS V14.01,2013-09-23 08:47:00,
2013-09-23 03:52:00,45.6,42.0,30.02,SSE,160,1.0,4.0,87,0.00,,OVC,0.00,0.00,VWS V14.01,2013-09-23 08:52:00,
2013-09-23 03:57:00,45.5,42.2,30.02,SW,219,0.0,1.0,88,0.00,,OVC,0.00,0.00,VWS V14.01,2013-09-23 08:57:00,
2013-09-23 04:02:00,45.4,42.1,30.02,South,190,3.0,3.0,88,0.00,,OVC,0.00,0.00,VWS V14.01,2013-09-23 09:02:00,
2013-09-23 04:07:00,45.4,42.1,30.03,South,186,1.0,2.0,88,0.00,,OVC,0.00,0.00,VWS V14.01,2013-09-23 09:07:00,
2013-09-23 04:12:00,45.3,42.0,30.02,SSW,205,0.0,3.0,88,0.00,,OVC,0.00,0.00,VWS V14.01,2013-09-23 09:12:00,
2013-09-23 04:17:00,45.2,41.9,30.03,SSE,155,5.0,5.0,88,0.00,,OVC,0.00,0.00,VWS V14.01,2013-09-23 09:17:00,
2013-09-23 04:22:00,45.2,41.9,30.03,SSW,205,7.0,7.0,88,0.00,,OVC,0.00,0.00,VWS V14.01,2013-09-23 09:22:00,
2013-09-23 04:27:00,45.1,42.1,30.03,ESE,116,2.0,9.0,89,0.00,,OVC,0.00,0.00,VWS V14.01,2013-09-23 09:27:00,
2013-09-23 04:32:00,45.0,42.0,30.03,South,186,7.0,7.0,89,0.00,,OVC,0.00,0.00,VWS V14.01,2013-09-23 09:32:00,
2013-09-23 04:37:00,45.0,42.0,30.03,South,190,1.0,2.0,89,0.00,,OVC,0.00,0.00,VWS V14.01,2013-09-23 09:37:00,
2013-09-23 04:42:00,45.0,42.0,30.03,South,178,3.0,3.0,89,0.00,,OVC,0.00,0.00,VWS V14.01,2013-09-23 09:42:00,
2013-09-23 04:47:00,45.0,42.0,30.02,South,183,0.0,3.0,89,0.00,,OVC,0.00,0.00,VWS V14.01,2013-09-23 09:47:00,
2013-09-23 04:52:00,44.9,41.9,30.03,SE,144,1.0,8.0,89,0.00,,OVC,0.00,0.00,VWS V14.01,2013-09-23 09:52:00,
2013-09-23 04:57:00,44.8,41.8,30.02,South,182,2.0,6.0,89,0.00,,OVC,0.00,0.00,VWS V14.01,2013-09-23 09:57:00,
2013-09-23 05:02:00,44.7,41.7,30.03,South,180,6.0,6.0,89,0.00,,OVC,0.00,0.00,VWS V14.01,2013-09-23 10:02:00,
2013-09-23 05:07:00,44.7,42.0,30.02,East,90,0.0,6.0,90,0.00,,OVC,0.00,0.00,VWS V14.01,2013-09-23 10:07:00,
2013-09-23 05:12:00,44.6,41.6,30.02,SSW,200,3.0,3.0,89,0.00,,OVC,0.00,0.00,VWS V14.01,2013-09-23 10:12:00,
2013-09-23 05:17:00,44.5,41.5,30.02,East,100,3.0,4.0,89,0.00,,OVC,0.00,0.00,VWS V14.01,2013-09-23 10:17:00,
2013-09-23 05:22:00,44.5,41.8,30.02,South,172,0.0,4.0,90,0.00,,OVC,0.00,0.00,VWS V14.01,2013-09-23 10:22:00,
2013-09-23 05:27:00,44.4,41.7,30.02,SSE,163,3.0,4.0,90,0.00,,OVC,0.00,0.00,VWS V14.01,2013-09-23 10:27:00,
2013-09-23 05:33:00,44.4,41.7,30.02,South,171,6.0,6.0,90,0.00,,OVC,0.00,0.00,VWS V14.01,2013-09-23 10:33:00,
2013-09-23 05:38:00,44.4,41.7,30.02,SSW,194,1.0,3.0,90,0.00,,OVC,0.00,0.00,VWS V14.01,2013-09-23 10:38:00,
2013-09-23 05:43:00,44.4,41.7,30.03,SW,225,2.0,5.0,90,0.00,,OVC,0.00,0.00,VWS V14.01,2013-09-23 10:43:00,
2013-09-23 05:48:00,44.4,41.7,30.03,SW,215,3.0,5.0,90,0.00,,OVC,0.00,0.00,VWS V14.01,2013-09-23 10:48:00,
2013-09-23 05:53:00,44.4,41.7,30.03,SSE,162,3.0,6.0,90,0.00,,OVC,0.00,0.00,VWS V14.01,2013-09-23 10:53:00,
2013-09-23 05:58:00,44.4,41.7,30.03,South,183,2.0,5.0,90,0.00,,OVC,0.00,0.00,VWS V14.01,2013-09-23 10:58:00,
2013-09-23 06:03:00,44.3,41.6,30.03,South,171,2.0,5.0,90,0.00,,OVC,0.00,0.00,VWS V14.01,2013-09-23 11:03:00,
2013-09-23 06:08:00,44.3,41.8,30.03,South,175,4.0,6.0,91,0.00,,OVC,0.00,0.00,VWS V14.01,2013-09-23 11:08:00,
2013-09-23 06:13:00,44.2,41.7,30.03,SE,143,3.0,6.0,91,0.00,,OVC,0.00,0.00,VWS V14.01,2013-09-23 11:13:00,
2013-09-23 06:18:00,44.2,41.7,30.03,South,173,3.0,7.0,91,0.00,,OVC,0.00,0.00,VWS V14.01,2013-09-23 11:18:00,
2013-09-23 06:23:00,44.2,41.7,30.03,South,178,4.0,6.0,91,0.00,,OVC,0.00,0.00,VWS V14.01,2013-09-23 11:23:00,
2013-09-23 06:28:00,44.2,41.7,30.03,SE,144,1.0,8.0,91,0.00,,OVC,0.00,0.00,VWS V14.01,2013-09-23 11:28:00,
2013-09-23 06:33:00,44.2,41.7,30.03,SSW,192,2.0,5.0,91,0.00,,OVC,0.00,0.00,VWS V14.01,2013-09-23 11:33:00,
2013-09-23 06:38:00,44.2,41.7,30.03,South,183,0.0,8.0,91,0.00,,OVC,0.00,0.00,VWS V14.01,2013-09-23 11:38:00,
2013-09-23 06:43:00,44.2,41.7,30.03,South,189,4.0,7.0,91,0.00,,OVC,0.00,0.00,VWS V14.01,2013-09-23 11:43:00,
2013-09-23 06:48:00,44.3,41.8,30.03,South,178,0.0,4.0,91,0.00,,OVC,0.00,0.00,VWS V14.01,2013-09-23 11:48:00,
2013-09-23 06:53:00,44.4,41.9,30.04,SSE,148,2.0,6.0,91,0.00,,OVC,0.00,5.00,VWS V14.01,2013-09-23 11:53:00,
2013-09-23 06:58:00,44.4,41.9,30.04,SSE,158,0.0,6.0,91,0.00,,OVC,0.00,7.00,VWS V14.01,2013-09-23 11:58:00,
2013-09-23 07:03:00,44.4,41.9,30.05,SSW,195,2.0,4.0,91,0.00,,OVC,0.00,9.00,VWS V14.01,2013-09-23 12:03:00,
2013-09-23 07:08:00,44.4,41.9,30.05,South,183,4.0,10.0,91,0.00,,OVC,0.00,11.00,VWS V14.01,2013-09-23 12:08:00,
2013-09-23 07:13:00,44.4,41.9,30.05,South,179,1.0,10.0,91,0.00,,OVC,0.00,14.00,VWS V14.01,2013-09-23 12:13:00,
2013-09-23 07:18:00,44.5,42.3,30.05,South,175,5.0,5.0,92,0.00,,OVC,0.00,18.00,VWS V14.01,2013-09-23 12:18:00,
2013-09-23 07:24:00,44.6,42.4,30.05,SSE,158,3.0,6.0,92,0.00,,OVC,0.00,19.00,VWS V14.01,2013-09-23 12:24:00,
2013-09-23 07:29:00,44.8,42.6,30.05,SSE,155,0.0,7.0,92,0.00,,OVC,0.00,23.00,VWS V14.01,2013-09-23 12:29:00,
2013-09-23 07:34:00,44.9,42.7,30.05,South,175,6.0,6.0,92,0.00,,OVC,0.00,25.00,VWS V14.01,2013-09-23 12:34:00,
2013-09-23 07:39:00,44.8,42.3,30.05,SSE,161,1.0,8.0,91,0.00,,OVC,0.00,26.00,VWS V14.01,2013-09-23 12:39:00,
2013-09-23 07:44:00,44.9,42.7,30.05,SSW,213,7.0,7.0,92,0.00,,OVC,0.00,28.00,VWS V14.01,2013-09-23 12:44:00,
2013-09-23 07:49:00,45.0,42.8,30.05,South,171,2.0,6.0,92,0.00,,OVC,0.00,32.00,VWS V14.01,2013-09-23 12:49:00,
2013-09-23 07:54:00,45.1,42.9,30.05,SW,227,3.0,7.0,92,0.00,,OVC,0.00,32.00,VWS V14.01,2013-09-23 12:54:00,
2013-09-23 07:59:00,45.2,43.0,30.05,SSW,202,1.0,7.0,92,0.00,,OVC,0.00,33.00,VWS V14.01,2013-09-23 12:59:00,
2013-09-23 08:04:00,45.4,43.2,30.05,SW,216,7.0,7.0,92,0.00,,OVC,0.00,35.00,VWS V14.01,2013-09-23 13:04:00,
2013-09-23 08:09:00,45.7,43.5,30.05,SSE,165,2.0,4.0,92,0.00,,OVC,0.00,35.00,VWS V14.01,2013-09-23 13:09:00,
2013-09-23 08:14:00,45.9,43.7,30.05,South,175,1.0,10.0,92,0.00,,OVC,0.00,39.00,VWS V14.01,2013-09-23 13:14:00,
2013-09-23 08:19:00,46.1,43.6,30.05,SSW,210,7.0,7.0,91,0.00,,OVC,0.00,35.00,VWS V14.01,2013-09-23 13:19:00,
2013-09-23 08:24:00,46.3,44.1,30.05,SW,215,6.0,6.0,92,0.00,,OVC,0.00,37.00,VWS V14.01,2013-09-23 13:24:00,
2013-09-23 08:29:00,46.5,44.0,30.05,South,189,4.0,9.0,91,0.00,,OVC,0.00,46.00,VWS V14.01,2013-09-23 13:29:00,
2013-09-23 08:34:00,46.7,44.2,30.05,South,177,8.0,8.0,91,0.00,,OVC,0.00,134.00,VWS V14.01,2013-09-23 13:34:00,
2013-09-23 08:39:00,46.9,44.4,30.05,SE,142,9.0,9.0,91,0.00,,OVC,0.00,221.00,VWS V14.01,2013-09-23 13:39:00,
2013-09-23 08:44:00,47.2,44.7,30.05,South,180,2.0,10.0,91,0.00,,OVC,0.00,250.00,VWS V14.01,2013-09-23 13:44:00,
2013-09-23 08:49:00,47.6,44.8,30.05,SW,225,0.0,4.0,90,0.00,,OVC,0.00,179.00,VWS V14.01,2013-09-23 13:49:00,
2013-09-23 08:54:00,48.0,45.2,30.05,SW,228,2.0,13.0,90,0.00,,OVC,0.00,148.00,VWS V14.01,2013-09-23 13:54:00,
2013-09-23 08:59:00,48.4,45.6,30.05,South,189,6.0,10.0,90,0.00,,OVC,0.00,301.00,VWS V14.01,2013-09-23 13:59:00,
2013-09-23 09:04:00,48.8,45.7,30.05,South,182,3.0,7.0,89,0.00,,OVC,0.00,320.00,VWS V14.01,2013-09-23 14:04:00,
2013-09-23 09:09:00,49.2,46.1,30.05,SW,216,2.0,7.0,89,0.00,,OVC,0.00,338.00,VWS V14.01,2013-09-23 14:09:00,
2013-09-23 09:14:00,49.7,46.3,30.05,SSE,163,0.0,9.0,88,0.00,,OVC,0.00,269.00,VWS V14.01,2013-09-23 14:14:00,
2013-09-23 09:19:00,50.1,46.7,30.05,South,190,1.0,5.0,88,0.00,,OVC,0.00,288.00,VWS V14.01,2013-09-23 14:19:00,
2013-09-23 09:24:00,50.4,46.7,30.06,SSW,195,1.0,5.0,87,0.00,,OVC,0.00,332.00,VWS V14.01,2013-09-23 14:24:00,
2013-09-23 09:29:00,50.8,46.8,30.06,SSE,167,1.0,7.0,86,0.00,,OVC,0.00,357.00,VWS V14.01,2013-09-23 14:29:00,
2013-09-23 09:34:00,51.2,46.8,30.06,WSW,252,3.0,7.0,85,0.00,,OVC,0.00,383.00,VWS V14.01,2013-09-23 14:34:00,
2013-09-23 09:39:00,51.7,47.0,30.06,ESE,116,4.0,8.0,84,0.00,,OVC,0.00,417.00,VWS V14.01,2013-09-23 14:39:00,
2013-09-23 09:44:00,52.2,47.5,30.06,SW,229,3.0,11.0,84,0.00,,OVC,0.00,436.00,VWS V14.01,2013-09-23 14:44:00,
2013-09-23 09:50:00,52.6,47.3,30.06,South,178,4.0,8.0,82,0.00,,OVC,0.00,448.00,VWS V14.01,2013-09-23 14:50:00,
2013-09-23 09:55:00,53.1,47.4,30.06,SW,225,13.0,13.0,81,0.00,,SCT,0.00,455.00,VWS V14.01,2013-09-23 14:55:00,
2013-09-23 10:00:00,53.4,47.7,30.06,SW,216,4.0,7.0,81,0.00,,SCT,0.00,318.00,VWS V14.01,2013-09-23 15:00:00,
2013-09-23 10:05:00,53.8,47.8,30.06,SSW,209,4.0,14.0,80,0.00,,SCT,0.00,251.00,VWS V14.01,2013-09-23 15:05:00,
2013-09-23 10:10:00,54.0,48.0,30.05,SE,134,3.0,8.0,80,0.00,,SCT,0.00,244.00,VWS V14.01,2013-09-23 15:10:00,
2013-09-23 10:15:00,54.4,48.4,30.05,WSW,240,0.0,7.0,80,0.00,,SCT,0.00,149.00,VWS V14.01,2013-09-23 15:15:00,
2013-09-23 10:20:00,54.6,48.6,30.05,South,188,6.0,6.0,80,0.00,,SCT,0.00,105.00,VWS V14.01,2013-09-23 15:20:00,
2013-09-23 10:25:00,54.8,48.1,30.05,WSW,238,4.0,10.0,78,0.00,,SCT,0.00,190.00,VWS V14.01,2013-09-23 15:25:00,
2013-09-23 10:30:00,54.9,48.2,30.05,SW,223,7.0,13.0,78,0.00,,SCT,0.00,274.00,VWS V14.01,2013-09-23 15:30:00,
2013-09-23 10:35:00,55.1,48.4,30.05,SE,128,6.0,11.0,78,0.00,,SCT,0.00,134.00,VWS V14.01,2013-09-23 15:35:00,
2013-09-23 10:40:00,55.3,48.6,30.04,WSW,246,0.0,9.0,78,0.00,,SCT,0.00,248.00,VWS V14.01,2013-09-23 15:40:00,
2013-09-23 10:45:00,55.7,49.3,30.04,SW,223,3.0,7.0,79,0.00,,SCT,0.00,475.00,VWS V14.01,2013-09-23 15:45:00,
2013-09-23 10:50:00,56.1,49.3,30.04,South,169,4.0,11.0,78,0.00,,SCT,0.00,315.00,VWS V14.01,2013-09-23 15:50:00,
2013-09-23 10:56:00,56.5,49.4,30.04,South,188,1.0,6.0,77,0.00,,SCT,0.00,446.00,VWS V14.01,2013-09-23 15:56:00,
2013-09-23 11:01:00,57.0,49.5,30.04,SW,232,4.0,6.0,76,0.00,,SCT,0.00,612.00,VWS V14.01,2013-09-23 16:01:00,
2013-09-23 11:06:00,57.4,49.2,30.04,ESE,110,2.0,11.0,74,0.00,,SCT,0.00,599.00,VWS V14.01,2013-09-23 16:06:00,
2013-09-23 11:11:00,57.8,49.9,30.04,South,175,3.0,12.0,75,0.00,,SCT,0.00,615.00,VWS V14.01,2013-09-23 16:11:00,
2013-09-23 11:16:00,58.5,49.9,30.04,South,177,3.0,10.0,73,0.00,,SCT,0.00,631.00,VWS V14.01,2013-09-23 16:16:00,
2013-09-23 11:21:00,59.0,50.4,30.04,SW,227,3.0,10.0,73,0.00,,SCT,0.00,629.00,VWS V14.01,2013-09-23 16:21:00,
2013-09-23 11:26:00,59.3,50.3,30.04,WSW,241,3.0,12.0,72,0.00,,SCT,0.00,624.00,VWS V14.01,2013-09-23 16:26:00,
2013-09-23 11:31:00,59.7,50.3,30.03,SE,129,3.0,9.0,71,0.00,,SCT,0.00,649.00,VWS V14.01,2013-09-23 16:31:00,
2013-09-23 11:36:00,60.0,50.6,30.03,SSW,196,4.0,10.0,71,0.00,,SCT,0.00,649.00,VWS V14.01,2013-09-23 16:36:00,
2013-09-23 11:41:00,60.3,50.5,30.03,SE,138,8.0,9.0,70,0.00,,SCT,0.00,668.00,VWS V14.01,2013-09-23 16:41:00,
2013-09-23 11:46:00,60.7,51.2,30.03,SW,226,4.0,10.0,71,0.00,,SCT,0.00,638.00,VWS V14.01,2013-09-23 16:46:00,
2013-09-23 11:51:00,61.0,51.2,30.03,SE,130,1.0,12.0,70,0.00,,SCT,0.00,671.00,VWS V14.01,2013-09-23 16:51:00,
2013-09-23 11:56:00,61.4,51.2,30.03,SW,229,4.0,10.0,69,0.00,,SCT,0.00,675.00,VWS V14.01,2013-09-23 16:56:00,
2013-09-23 12:01:00,61.7,51.0,30.03,SW,221,3.0,9.0,68,0.00,,SCT,0.00,687.00,VWS V14.01,2013-09-23 17:01:00,
2013-09-23 12:06:00,62.0,51.7,30.03,South,182,3.0,14.0,69,0.00,,SCT,0.00,552.00,VWS V14.01,2013-09-23 17:06:00,
2013-09-23 12:11:00,62.2,51.1,30.03,SW,226,3.0,8.0,67,0.00,,SCT,0.00,643.00,VWS V14.01,2013-09-23 17:11:00,
2013-09-23 12:16:00,62.4,51.7,30.03,South,188,8.0,8.0,68,0.00,,SCT,0.00,624.00,VWS V14.01,2013-09-23 17:16:00,
2013-09-23 12:21:00,62.5,51.4,30.03,WSW,240,7.0,9.0,67,0.00,,SCT,0.00,657.00,VWS V14.01,2013-09-23 17:21:00,
2013-09-23 12:26:00,62.7,51.2,30.02,SW,227,5.0,10.0,66,0.00,,SCT,0.00,664.00,VWS V14.01,2013-09-23 17:26:00,
2013-09-23 12:31:00,63.0,51.9,30.02,SW,229,3.0,12.0,67,0.00,,SCT,0.00,705.00,VWS V14.01,2013-09-23 17:31:00,
2013-09-23 12:36:00,63.5,52.0,30.02,South,173,9.0,16.0,66,0.00,,SCT,0.00,719.00,VWS V14.01,2013-09-23 17:36:00,
2013-09-23 12:41:00,63.9,51.1,30.02,SSW,205,10.0,15.0,63,0.00,,SCT,0.00,645.00,VWS V14.01,2013-09-23 17:41:00,
2013-09-23 12:46:00,64.0,51.6,30.02,West,262,9.0,14.0,64,0.00,,SCT,0.00,693.00,VWS V14.01,2013-09-23 17:46:00,
2013-09-23 12:51:00,64.2,52.2,30.02,SW,218,4.0,4.0,65,0.00,,SCT,0.00,673.00,VWS V14.01,2013-09-23 17:51:00,
2013-09-23 12:56:00,64.4,51.5,30.02,South,188,3.0,3.0,63,0.00,,SCT,0.00,650.00,VWS V14.01,2013-09-23 17:56:00,
2013-09-23 13:01:00,64.6,51.7,30.02,SSE,168,8.0,8.0,63,0.00,,SCT,0.00,728.00,VWS V14.01,2013-09-23 18:01:00,
2013-09-23 13:06:00,65.0,52.1,30.01,South,188,5.0,6.0,63,0.00,,SCT,0.00,768.00,VWS V14.01,2013-09-23 18:06:00,
2013-09-23 13:11:00,65.4,52.9,30.01,South,180,10.0,10.0,64,0.00,,SCT,0.00,766.00,VWS V14.01,2013-09-23 18:11:00,
2013-09-23 13:16:00,65.7,52.8,30.01,SW,232,2.0,6.0,63,0.00,,SCT,0.00,749.00,VWS V14.01,2013-09-23 18:16:00,
2013-09-23 13:21:00,65.9,52.1,30.01,SW,215,6.0,10.0,61,0.00,,SCT,0.00,758.00,VWS V14.01,2013-09-23 18:21:00,
2013-09-23 13:26:00,66.1,53.2,30.01,South,172,10.0,10.0,63,0.00,,SCT,0.00,752.00,VWS V14.01,2013-09-23 18:26:00,
2013-09-23 13:32:00,66.5,53.5,30.01,South,184,5.0,5.0,63,0.00,,SCT,0.00,756.00,VWS V14.01,2013-09-23 18:32:00,
2013-09-23 13:37:00,66.8,52.9,30.01,SW,225,6.0,7.0,61,0.00,,SCT,0.00,752.00,VWS V14.01,2013-09-23 18:37:00,
2013-09-23 13:42:00,66.9,53.0,30.00,SW,234,4.0,7.0,61,0.00,,SCT,0.00,744.00,VWS V14.01,2013-09-23 18:42:00,
2013-09-23 13:47:00,66.8,52.0,30.00,SW,232,9.0,12.0,59,0.00,,SCT,0.00,728.00,VWS V14.01,2013-09-23 18:47:00,
2013-09-23 13:52:00,66.6,51.8,30.00,WSW,246,9.0,12.0,59,0.00,,SCT,0.00,650.00,VWS V14.01,2013-09-23 18:52:00,
2013-09-23 13:57:00,66.6,52.3,30.00,West,261,1.0,3.0,60,0.00,,SCT,0.00,645.00,VWS V14.01,2013-09-23 18:57:00,
2013-09-23 14:02:00,66.8,52.5,30.00,SW,232,6.0,6.0,60,0.00,,SCT,0.00,577.00,VWS V14.01,2013-09-23 19:02:00,
2013-09-23 14:07:00,66.9,51.7,30.00,SW,221,6.0,12.0,58,0.00,,SCT,0.00,519.00,VWS V14.01,2013-09-23 19:07:00,
2013-09-23 14:12:00,66.8,52.0,30.00,SSW,208,1.0,8.0,59,0.00,,SCT,0.00,571.00,VWS V14.01,2013-09-23 19:12:00,
2013-09-23 14:17:00,66.8,52.5,29.99,South,171,3.0,3.0,60,0.00,,SCT,0.00,652.00,VWS V14.01,2013-09-23 19:17:00,
2013-09-23 14:22:00,66.8,52.0,29.99,SW,220,6.0,16.0,59,0.00,,SCT,0.00,638.00,VWS V14.01,2013-09-23 19:22:00,
2013-09-23 14:27:00,67.0,52.7,29.99,South,185,2.0,4.0,60,0.00,,SCT,0.00,573.00,VWS V14.01,2013-09-23 19:27:00,
2013-09-23 14:32:00,67.0,52.2,29.99,SSW,212,9.0,10.0,59,0.00,,SCT,0.00,664.00,VWS V14.01,2013-09-23 19:32:00,
2013-09-23 14:37:00,67.0,51.8,29.98,WSW,242,5.0,7.0,58,0.00,,SCT,0.00,621.00,VWS V14.01,2013-09-23 19:37:00,
2013-09-23 14:42:00,67.2,52.4,29.98,SE,129,4.0,11.0,59,0.00,,SCT,0.00,592.00,VWS V14.01,2013-09-23 19:42:00,
2013-09-23 14:47:00,67.4,52.1,29.98,South,181,2.0,10.0,58,0.00,,SCT,0.00,756.00,VWS V14.01,2013-09-23 19:47:00,
2013-09-23 14:52:00,67.8,52.0,29.98,SSW,198,8.0,11.0,57,0.00,,SCT,0.00,703.00,VWS V14.01,2013-09-23 19:52:00,
2013-09-23 14:57:00,68.0,51.7,29.98,SSW,212,3.0,12.0,56,0.00,,SCT,0.00,661.00,VWS V14.01,2013-09-23 19:57:00,
2013-09-23 15:02:00,68.0,51.2,29.98,SW,226,5.0,8.0,55,0.00,,SCT,0.00,638.00,VWS V14.01,2013-09-23 20:02:00,
2013-09-23 15:07:00,68.0,52.7,29.98,SSW,200,2.0,12.0,58,0.00,,SCT,0.00,617.00,VWS V14.01,2013-09-23 20:07:00,
2013-09-23 15:13:00,68.0,51.7,29.98,NE,44,5.0,10.0,56,0.00,,SCT,0.00,559.00,VWS V14.01,2013-09-23 20:13:00,
2013-09-23 15:18:00,68.1,51.8,29.98,SSW,210,4.0,9.0,56,0.00,,SCT,0.00,589.00,VWS V14.01,2013-09-23 20:18:00,
2013-09-23 15:23:00,68.1,51.8,29.98,South,182,3.0,9.0,56,0.00,,SCT,0.00,603.00,VWS V14.01,2013-09-23 20:23:00,
2013-09-23 15:28:00,68.1,50.8,29.98,ESE,103,11.0,11.0,54,0.00,,SCT,0.00,538.00,VWS V14.01,2013-09-23 20:28:00,
2013-09-23 15:33:00,68.1,51.3,29.98,SSE,148,11.0,11.0,55,0.00,,SCT,0.00,557.00,VWS V14.01,2013-09-23 20:33:00,
2013-09-23 15:38:00,68.3,51.5,29.98,SW,219,5.0,10.0,55,0.00,,SCT,0.00,476.00,VWS V14.01,2013-09-23 20:38:00,
2013-09-23 15:43:00,68.3,51.5,29.97,SSW,192,3.0,5.0,55,0.00,,SCT,0.00,520.00,VWS V14.01,2013-09-23 20:43:00,
2013-09-23 15:48:00,68.3,51.5,29.97,SSW,212,6.0,7.0,55,0.00,,SCT,0.00,582.00,VWS V14.01,2013-09-23 20:48:00,
2013-09-23 15:53:00,68.5,52.2,29.98,SE,134,3.0,7.0,56,0.00,,SCT,0.00,575.00,VWS V14.01,2013-09-23 20:53:00,
2013-09-23 15:58:00,68.6,52.8,29.97,SSE,163,1.0,6.0,57,0.00,,SCT,0.00,522.00,VWS V14.01,2013-09-23 20:58:00,
2013-09-23 16:03:00,68.6,52.3,29.98,SW,215,7.0,14.0,56,0.00,,SCT,0.00,520.00,VWS V14.01,2013-09-23 21:03:00,
2013-09-23 16:08:00,68.8,52.0,29.98,South,180,2.0,8.0,55,0.00,,SCT,0.00,489.00,VWS V14.01,2013-09-23 21:08:00,
2013-09-23 16:13:00,68.9,51.1,29.98,SSE,148,3.0,4.0,53,0.00,,SCT,0.00,503.00,VWS V14.01,2013-09-23 21:13:00,
2013-09-23 16:18:00,68.9,50.6,29.98,South,169,6.0,10.0,52,0.00,,SCT,0.00,469.00,VWS V14.01,2013-09-23 21:18:00,
2013-09-23 16:23:00,68.8,50.5,29.98,SW,231,5.0,7.0,52,0.00,,SCT,0.00,392.00,VWS V14.01,2013-09-23 21:23:00,
2013-09-23 16:28:00,68.6,51.3,29.98,SSE,164,9.0,9.0,54,0.00,,SCT,0.00,478.00,VWS V14.01,2013-09-23 21:28:00,
2013-09-23 16:33:00,68.6,51.8,29.97,WSW,249,2.0,10.0,55,0.00,,SCT,0.00,461.00,VWS V14.01,2013-09-23 21:33:00,
2013-09-23 16:38:00,68.7,51.9,29.98,South,181,5.0,9.0,55,0.00,,SCT,0.00,441.00,VWS V14.01,2013-09-23 21:38:00,
2013-09-23 16:43:00,68.8,52.5,29.98,SSW,194,3.0,12.0,56,0.00,,SCT,0.00,366.00,VWS V14.01,2013-09-23 21:43:00,
2013-09-23 16:48:00,68.8,51.0,29.98,SSW,208,5.0,9.0,53,0.00,,SCT,0.00,357.00,VWS V14.01,2013-09-23 21:48:00,
2013-09-23 16:53:00,68.6,51.3,29.98,SSE,161,9.0,9.0,54,0.00,,SCT,0.00,336.00,VWS V14.01,2013-09-23 21:53:00,
2013-09-23 16:58:00,68.4,51.6,29.98,SW,235,2.0,5.0,55,0.00,,SCT,0.00,339.00,VWS V14.01,2013-09-23 21:58:00,
2013-09-23 17:03:00,68.5,52.7,29.98,East,98,1.0,8.0,57,0.00,,SCT,0.00,295.00,VWS V14.01,2013-09-23 22:03:00,
2013-09-23 17:08:00,68.6,52.8,29.98,SW,233,1.0,7.0,57,0.00,,SCT,0.00,318.00,VWS V14.01,2013-09-23 22:08:00,
2013-09-23 17:13:00,68.6,52.8,29.98,SSW,198,3.0,5.0,57,0.00,,SCT,0.00,339.00,VWS V14.01,2013-09-23 22:13:00,
2013-09-23 17:18:00,68.5,53.2,29.98,North,355,2.0,8.0,58,0.00,,SCT,0.00,334.00,VWS V14.01,2013-09-23 22:18:00,
2013-09-23 17:23:00,68.5,53.2,29.97,SSE,153,2.0,8.0,58,0.00,,SCT,0.00,285.00,VWS V14.01,2013-09-23 22:23:00,
2013-09-23 17:28:00,68.5,53.2,29.98,WSW,240,3.0,9.0,58,0.00,,SCT,0.00,225.00,VWS V14.01,2013-09-23 22:28:00,
2013-09-23 17:33:00,68.4,53.1,29.98,South,184,5.0,8.0,58,0.00,,SCT,0.00,202.00,VWS V14.01,2013-09-23 22:33:00,
2013-09-23 17:38:00,68.1,52.8,29.97,SSE,148,2.0,11.0,58,0.00,,SCT,0.00,216.00,VWS V14.01,2013-09-23 22:38:00,
2013-09-23 17:43:00,68.0,53.2,29.97,SSE,153,2.0,6.0,59,0.00,,SCT,0.00,179.00,VWS V14.01,2013-09-23 22:43:00,
2013-09-23 17:49:00,68.0,52.7,29.97,SE,130,2.0,7.0,58,0.00,,SCT,0.00,195.00,VWS V14.01,2013-09-23 22:49:00,
2013-09-23 17:54:00,67.9,53.1,29.97,South,175,17.0,17.0,59,0.00,,SCT,0.00,153.00,VWS V14.01,2013-09-23 22:54:00,
2013-09-23 17:59:00,67.7,52.9,29.97,SE,136,0.0,5.0,59,0.00,,SCT,0.00,79.00,VWS V14.01,2013-09-23 22:59:00,
2013-09-23 18:04:00,67.4,52.6,29.97,SSE,167,1.0,7.0,59,0.00,,SCT,0.00,67.00,VWS V14.01,2013-09-23 23:04:00,
2013-09-23 18:09:00,67.0,52.7,29.97,SE,136,1.0,6.0,60,0.00,,SCT,0.00,93.00,VWS V14.01,2013-09-23 23:09:00,
2013-09-23 18:14:00,66.7,52.8,29.97,South,173,2.0,8.0,61,0.00,,SCT,0.00,79.00,VWS V14.01,2013-09-23 23:14:00,
2013-09-23 18:19:00,66.2,51.9,29.97,SE,124,2.0,8.0,60,0.00,,SCT,0.00,70.00,VWS V14.01,2013-09-23 23:19:00,
2013-09-23 18:24:00,65.8,52.4,29.97,SSE,162,9.0,9.0,62,0.00,,SCT,0.00,51.00,VWS V14.01,2013-09-23 23:24:00,
2013-09-23 18:29:00,65.6,52.7,29.97,SE,146,3.0,7.0,63,0.00,,SCT,0.00,33.00,VWS V14.01,2013-09-23 23:29:00,
2013-09-23 18:34:00,65.4,52.9,29.97,South,180,6.0,6.0,64,0.00,,SCT,0.00,32.00,VWS V14.01,2013-09-23 23:34:00,
2013-09-23 18:39:00,65.1,52.6,29.97,SSE,155,1.0,7.0,64,0.00,,SCT,0.00,28.00,VWS V14.01,2013-09-23 23:39:00,
2013-09-23 18:44:00,64.7,52.7,29.97,SSE,149,3.0,3.0,65,0.00,,SCT,0.00,21.00,VWS V14.01,2013-09-23 23:44:00,
2013-09-23 18:49:00,64.2,52.2,29.97,SE,134,2.0,5.0,65,0.00,,SCT,0.00,16.00,VWS V14.01,2013-09-23 23:49:00,
2013-09-23 18:54:00,63.6,52.0,29.97,SSE,163,1.0,6.0,66,0.00,,SCT,0.00,9.00,VWS V14.01,2013-09-23 23:54:00,
2013-09-23 18:59:00,63.2,52.1,29.97,South,175,0.0,2.0,67,0.00,,SCT,0.00,5.00,VWS V14.01,2013-09-23 23:59:00,
2013-09-23 19:04:00,62.9,52.2,29.97,South,171,0.0,5.0,68,0.00,,SCT,0.00,5.00,VWS V14.01,2013-09-24 00:04:00,
2013-09-23 19:09:00,62.5,51.8,29.97,ESE,122,1.0,2.0,68,0.00,,SCT,0.00,0.00,VWS V14.01,2013-09-24 00:09:00,
2013-09-23 19:14:00,62.1,51.8,29.97,SSE,159,1.0,6.0,69,0.00,,SCT,0.00,0.00,VWS V14.01,2013-09-24 00:14:00,
2013-09-23 19:19:00,61.5,51.6,29.97,SSE,163,0.0,7.0,70,0.00,,SCT,0.00,0.00,VWS V14.01,2013-09-24 00:19:00,
2013-09-23 19:24:00,61.0,51.5,29.97,SSE,149,0.0,4.0,71,0.00,,SCT,0.00,0.00,VWS V14.01,2013-09-24 00:24:00,
2013-09-23 19:29:00,60.4,51.0,29.97,SE,135,2.0,5.0,71,0.00,,SCT,0.00,0.00,VWS V14.01,2013-09-24 00:29:00,
2013-09-23 19:34:00,59.9,50.9,29.97,SE,137,0.0,3.0,72,0.00,,SCT,0.00,0.00,VWS V14.01,2013-09-24 00:34:00,
2013-09-23 19:39:00,59.5,50.8,29.98,SSE,157,2.0,5.0,73,0.00,,SCT,0.00,0.00,VWS V14.01,2013-09-24 00:39:00,
2013-09-23 19:44:00,59.0,50.7,29.98,SE,140,5.0,6.0,74,0.00,,SCT,0.00,0.00,VWS V14.01,2013-09-24 00:44:00,
2013-09-23 19:49:00,58.9,51.0,29.98,SSW,196,4.0,6.0,75,0.00,,SCT,0.00,0.00,VWS V14.01,2013-09-24 00:49:00,
2013-09-23 19:54:00,58.5,50.6,29.98,South,171,5.0,6.0,75,0.00,,SCT,0.00,0.00,VWS V14.01,2013-09-24 00:54:00,
2013-09-23 19:59:00,58.3,50.4,29.98,SSE,158,3.0,6.0,75,0.00,,SCT,0.00,0.00,VWS V14.01,2013-09-24 00:59:00,
2013-09-23 20:05:00,58.1,50.2,29.98,South,171,1.0,5.0,75,0.00,,SCT,0.00,0.00,VWS V14.01,2013-09-24 01:05:00,
2013-09-23 20:10:00,57.9,50.4,29.98,SW,221,0.0,3.0,76,0.00,,SCT,0.00,0.00,VWS V14.01,2013-09-24 01:10:00,
2013-09-23 20:15:00,57.8,50.3,29.98,South,172,0.0,4.0,76,0.00,,SCT,0.00,0.00,VWS V14.01,2013-09-24 01:15:00,
2013-09-23 20:20:00,57.7,50.2,29.99,South,181,0.0,5.0,76,0.00,,SCT,0.00,0.00,VWS V14.01,2013-09-24 01:20:00,
2013-09-23 20:25:00,57.6,49.8,29.98,South,173,0.0,3.0,75,0.00,,SCT,0.00,0.00,VWS V14.01,2013-09-24 01:25:00,
2013-09-23 20:30:00,57.4,49.9,29.98,SSE,157,0.0,4.0,76,0.00,,SCT,0.00,0.00,VWS V14.01,2013-09-24 01:30:00,
2013-09-23 20:35:00,57.2,50.1,29.98,SSE,148,0.0,3.0,77,0.00,,SCT,0.00,0.00,VWS V14.01,2013-09-24 01:35:00,
2013-09-23 20:40:00,57.0,49.9,29.98,South,169,6.0,7.0,77,0.00,,SCT,0.00,0.00,VWS V14.01,2013-09-24 01:40:00,
2013-09-23 20:45:00,56.7,49.6,29.98,SE,141,2.0,6.0,77,0.00,,SCT,0.00,0.00,VWS V14.01,2013-09-24 01:45:00,
2013-09-23 20:50:00,56.5,49.7,29.98,South,183,1.0,5.0,78,0.00,,SCT,0.00,0.00,VWS V14.01,2013-09-24 01:50:00,
2013-09-23 20:55:00,56.3,49.9,29.98,ESE,109,2.0,4.0,79,0.00,,SCT,0.00,0.00,VWS V14.01,2013-09-24 01:55:00,
2013-09-23 21:00:00,56.0,49.6,29.98,SE,128,5.0,7.0,79,0.00,,SCT,0.00,0.00,VWS V14.01,2013-09-24 02:00:00,
2013-09-23 21:05:00,55.9,49.8,29.98,SE,129,3.0,8.0,80,0.00,,SCT,0.00,0.00,VWS V14.01,2013-09-24 02:05:00,
2013-09-23 21:10:00,55.7,49.6,29.98,SSE,150,4.0,7.0,80,0.00,,SCT,0.00,0.00,VWS V14.01,2013-09-24 02:10:00,
2013-09-23 21:15:00,55.6,49.5,29.98,SSE,163,1.0,7.0,80,0.00,,SCT,0.00,0.00,VWS V14.01,2013-09-24 02:15:00,
2013-09-23 21:20:00,55.5,49.8,29.98,South,174,0.0,6.0,81,0.00,,SCT,0.00,0.00,VWS V14.01,2013-09-24 02:20:00,
2013-09-23 21:25:00,55.4,49.7,29.98,SE,126,0.0,5.0,81,0.00,,SCT,0.00,0.00,VWS V14.01,2013-09-24 02:25:00,
2013-09-23 21:30:00,55.3,49.6,29.98,SSE,166,7.0,7.0,81,0.00,,SCT,0.00,0.00,VWS V14.01,2013-09-24 02:30:00,
2013-09-23 21:35:00,55.2,49.5,29.98,SSW,195,0.0,5.0,81,0.00,,SCT,0.00,0.00,VWS V14.01,2013-09-24 02:35:00,
2013-09-23 21:40:00,55.2,49.5,29.99,SSW,194,0.0,5.0,81,0.00,,SCT,0.00,0.00,VWS V14.01,2013-09-24 02:40:00,
2013-09-23 21:46:00,55.1,49.7,29.99,SSW,194,3.0,6.0,82,0.00,,SCT,0.00,0.00,VWS V14.01,2013-09-24 02:46:00,
2013-09-23 21:51:00,55.0,49.6,29.99,SSE,161,2.0,7.0,82,0.00,,SCT,0.00,0.00,VWS V14.01,2013-09-24 02:51:00,
2013-09-23 21:56:00,54.9,49.5,29.99,SW,220,1.0,6.0,82,0.00,,SCT,0.00,0.00,VWS V14.01,2013-09-24 02:56:00,
2013-09-23 22:01:00,54.8,49.4,29.99,SSW,200,0.0,7.0,82,0.00,,SCT,0.00,0.00,VWS V14.01,2013-09-24 03:01:00,
2013-09-23 22:06:00,54.8,49.4,29.99,SSE,158,0.0,7.0,82,0.00,,SCT,0.00,0.00,VWS V14.01,2013-09-24 03:06:00,
2013-09-23 22:11:00,54.7,49.3,29.99,South,176,0.0,6.0,82,0.00,,SCT,0.00,0.00,VWS V14.01,2013-09-24 03:11:00,
2013-09-23 22:16:00,54.6,49.2,29.99,South,177,2.0,5.0,82,0.00,,SCT,0.00,0.00,VWS V14.01,2013-09-24 03:16:00,
2013-09-23 22:21:00,54.5,49.1,29.99,ESE,117,0.0,7.0,82,0.00,,SCT,0.00,0.00,VWS V14.01,2013-09-24 03:21:00,
2013-09-23 22:26:00,54.5,49.5,29.99,South,186,3.0,7.0,83,0.00,,SCT,0.00,0.00,VWS V14.01,2013-09-24 03:26:00,
2013-09-23 22:31:00,54.5,49.5,29.99,SSW,192,2.0,8.0,83,0.00,,SCT,0.00,0.00,VWS V14.01,2013-09-24 03:31:00,
2013-09-23 22:36:00,54.4,49.3,29.99,SSE,156,7.0,7.0,83,0.00,,SCT,0.00,0.00,VWS V14.01,2013-09-24 03:36:00,
2013-09-23 22:41:00,54.4,49.3,30.00,SSW,213,0.0,7.0,83,0.00,,SCT,0.00,0.00,VWS V14.01,2013-09-24 03:41:00,
2013-09-23 22:46:00,54.3,49.3,30.00,South,187,0.0,8.0,83,0.00,,SCT,0.00,0.00,VWS V14.01,2013-09-24 03:46:00,
2013-09-23 22:51:00,54.2,49.2,29.99,South,169,7.0,11.0,83,0.00,,SCT,0.00,0.00,VWS V14.01,2013-09-24 03:51:00,
2013-09-23 22:56:00,54.2,49.2,30.00,SSW,197,4.0,8.0,83,0.00,,SCT,0.00,0.00,VWS V14.01,2013-09-24 03:56:00,
2013-09-23 23:01:00,54.1,49.1,29.99,SSE,168,6.0,8.0,83,0.00,,SCT,0.00,0.00,VWS V14.01,2013-09-24 04:01:00,
2013-09-23 23:02:00,54.1,49.1,29.99,SSE,167,0.0,0.0,83,0.00,,SCT,0.00,0.00,VWS V14.01,2013-09-24 04:02:00,
2013-09-23 23:06:00,54.0,49.0,29.99,SE,144,0.0,1.0,83,0.00,,SCT,0.00,0.00,VWS V14.01,2013-09-24 04:06:00,
2013-09-23 23:11:00,53.9,48.9,29.99,SSW,193,0.0,1.0,83,0.00,,SCT,0.00,0.00,VWS V14.01,2013-09-24 04:11:00,
2013-09-23 23:16:00,53.8,48.8,29.99,SSE,161,4.0,9.0,83,0.00,,SCT,0.00,0.00,VWS V14.01,2013-09-24 04:16:00,
2013-09-23 23:21:00,53.8,49.1,30.00,SE,126,3.0,3.0,84,0.00,,SCT,0.00,0.00,VWS V14.01,2013-09-24 04:21:00,
2013-09-23 23:26:00,53.7,49.0,30.00,SSW,195,1.0,1.0,84,0.00,,SCT,0.00,0.00,VWS V14.01,2013-09-24 04:26:00,
2013-09-23 23:31:00,53.6,48.6,30.00,South,190,0.0,0.0,83,0.00,,SCT,0.00,0.00,VWS V14.01,2013-09-24 04:31:00,
2013-09-23 23:36:00,53.5,48.5,29.99,SSW,196,5.0,5.0,83,0.00,,SCT,0.00,0.00,VWS V14.01,2013-09-24 04:36:00,
2013-09-23 23:41:00,53.4,48.4,30.00,SSW,206,3.0,8.0,83,0.00,,SCT,0.00,0.00,VWS V14.01,2013-09-24 04:41:00,
2013-09-23 23:46:00,53.3,48.6,30.00,SSW,205,6.0,6.0,84,0.00,,SCT,0.00,0.00,VWS V14.01,2013-09-24 04:46:00,
2013-09-23 23:51:00,53.1,48.4,29.99,South,184,2.0,2.0,84,0.00,,SCT,0.00,0.00,VWS V14.01,2013-09-24 04:51:00,
2013-09-23 23:57:00,53.0,48.3,29.99,SSW,211,4.0,5.0,84,0.00,,SCT,0.00,0.00,VWS V14.01,2013-09-24 04:57:00,